Regional Weather Roundup
Issued by NWS Midland/Odessa, TX

Skip options and go directly to product.
Home | Oldest Version | Previous Version | Current Version | All | Text Only | Save Text | Print | Product List | Glossary Off

Skip product version selection by date and time.   

367
ASUS44 KMAF 260610
RWRMAF
MIDLAND AREA WEATHER ROUNDUP
NATIONAL WEATHER SERVICE MIDLAND TX
100 AM CDT SUN APR 26 2015

...IN SOUTHWEST TEXAS AND SOUTHEAST NEW MEXICO...

CITY           SKY/WX    TMP DP  RH WIND       PRES   REMARKS
ALPINE         CLEAR     52  33  48 W8        29.91S
ANDREWS        FAIR      60  25  26 SW9       29.76S
ARTESIA        PTCLDY    57  21  24 SW6       29.77S
BIG SPRING     CLEAR     59  27  29 E7        29.76F
CARLSBAD       CLEAR     53  26  35 SW6       29.75R
DRYDEN           N/A     67  51  56 NE7       29.73F
FORT STOCKTON  CLEAR     61  28  28 S10       29.78R
GUAD PASS      MOCLDY    59  16  18 SW10      29.90R
HOBBS          CLEAR     57  23  26 CALM      29.78S
MARFA          CLEAR     45  34  65 N9        29.90S WCI  40
MIDLAND AIRPK  CLEAR     65  34  32 CALM      29.75F
MIDLAND INTL   CLEAR     58  41  53 SW5       29.76
ODESSA         CLEAR     62  32  32 SW3       29.76F
PECOS          CLEAR     53  25  33 W5        29.75S
PRESIDIO       FAIR      70  26  18 NW5       29.78R
SEMINOLE       CLEAR     55  28  35 SW7       29.77S
SNYDER         CLEAR     62  36  38 S7        29.74S
WINK           CLEAR     57  23  26 SE3       29.74S
$$
...OTHER STATIONS IN TEXAS...

CITY           SKY/WX    TMP DP  RH WIND       PRES   REMARKS
ABILENE        CLEAR     60  43  53 S8        29.71F
AMARILLO       PTCLDY    56  32  40 SW6       29.71S
AUSTIN         PTCLDY    70  68  93 S5        29.72S
BROWNSVILLE    CLOUDY    79  77  94 SE6       29.72S FOG
CORPUS CHRISTI FOG       75  74  96 S7        29.74R VSB 3/4
DALLAS FTW     CLEAR     65  55  70 S7        29.67F
DEL RIO        CLEAR     73  59  61 SE6       29.70F
EL PASO        PTCLDY    68  22  17 SW15      29.81S
HOUSTON INT    MOCLDY    70  67  90 S6        29.74S
LUBBOCK        PTCLDY    61  27  27 SW12      29.73S
SAN ANGELO     CLEAR     56  44  64 SW7       29.73S
SAN ANTONIO    CLOUDY    75  71  87 S8        29.74F
WACO           CLEAR     65  58  78 S6        29.70S
WICHITA FALLS  NOT AVBL
$$
...OTHER LOCATIONS IN NEW MEXICO...

CITY           SKY/WX    TMP DP  RH WIND       PRES   REMARKS
ALAMAGORDO     PTCLDY    57  23  26 S8        29.81S
ALBUQUERQUE    CLOUDY    57  32  38 S7        29.80S
CANNON AFB     PTCLDY    53  29  40 SW5       29.75S
CLOVIS         PTCLDY    48  27  43 SW9       29.75S
HOLLOMAN AFB   MOCLDY    60  23  23 S8        29.79S
ROSWELL        PTCLDY    55  27  34 W7        29.75R
RUIDOSO        PTCLDY    54  18  24 SW15G26   29.88F
SANTA FE       CLOUDY    49  26  41 NW7       29.81F
TRUTH OR CONSE MOCLDY    60  23  24 SW5       29.78F
TUCUMCARI      CLEAR     49  26  41 SW3       29.70F
$$

USA.gov is the U.S. government's official web portal to all federal, state and local government web resources and services.